User: anonymous   Login
Location: La Brionne
(46.1728°N, 1.7849°E)
Time: 11:51:03
(UTC+00:00)
Language:

H-2A R/B - Orbit

View from above orbital plane
View from above orbital plane
View from above satellite
View from above satellite

Ground track
Ground track

The orbit data is extracted from the following two-line orbital elements,

1 39771U 14029F   21266.08459317  .00000451  00000-0  48128-4 0  9994
2 39771  98.1586 151.6776 0017198 159.3922 200.7994 14.94006208399721
Epoch (UTC): 23 September 2021 02:01:48
Eccentricity: 0.0017198
inclination: 98.1586°
perigee height: 573 km
apogee height: 597 km
right ascension of ascending node: 151.6776°
argument of perigee: 159.3922°
revolutions per day: 14.94006208
mean anomaly at epoch: 200.7994°
orbit number at epoch: 39972

The dashed part of the orbit path shows where the satellite is in the earth's shadow,  

DLR